{"data":{"norad_id":67034,"intl_designator":"2025-294E","name":"STARLINK-36140","alt_names":[],"object_type":"PAYLOAD","status":"ACTIVE","operator":null,"country":"US","launch_date":"2025-12-11","launch_site_code":"AFETR","launch_vehicle":null,"mission":null,"orbit_class":"UNKNOWN","rcs_meters":null,"size_class":null,"mass_kg":null,"dimensions":null,"purposes":["comms"],"wikipedia_slug":null,"has_3d_model":false,"image_url":null,"decayed_at":null,"tle_current":{"epoch":"2026-09-20T14:14:55.827744Z","epoch_age_seconds":73437,"freshness":"FRESH","line1":"1 67034U 25294E   26263.59370171  .00009820  00000+0  36582-3 0  9999","line2":"2 67034  42.9990  17.6746 0000912 252.0689 108.0063 15.27585085 44608","mean_motion":15.27585085,"eccentricity":9.12e-5,"inclination_deg":42.999,"raan_deg":17.6746,"arg_perigee_deg":252.0689,"mean_anomaly_deg":108.0063,"bstar":0.00036582,"rev_number":4460,"period_min":94.266434920056,"perigee_km":482.40813097925,"apogee_km":483.65960854589,"semimajor_km":6861.1708697626,"source":"CELESTRAK","updated_at":"2026-09-21T09:00:36.091817Z"}}}